Humidity-temperature Sensor

Selected Measurement Type: Relative Humidity

 
Relative Humidity [%]     6 entries per hour
Showing data from 5/23/2018 (00:00:00 Z) to 5/20/2018 (00:01:00 Z)
Previous Next [ Day | 3-Days | 7-Days ]
First Last
Prev [ Day | 3-Days | 7-Days ] Next
First Last

Start Time:     :
End Time:     :     
Time (in GMT) :00 :50 :40 :30 :20 :10
Previous Next [ Day | 3-Days | 7-Days ]
First Last
Prev [ Day | 3-Days | 7-Days ] Next
First Last


123 => good data
MM => data is determined as missing
-- => data not received/configured
Back to Top Back to Top
5/23/2018 00:00 to 23:10 81.02 77.10 77.72 78.96 78.07 78.12
5/22/2018 23:00 to 22:10 78.99 79.67 79.67 75.17 78.84 79.19
5/22/2018 22:00 to 21:10 80.68 79.79 79.05 77.87 76.85 77.25
5/22/2018 21:00 to 20:10 80.17 82.34 82.76 82.03 83.11 80.19
5/22/2018 20:00 to 19:10 79.67 77.83 79.09 78.65 79.50 78.72
5/22/2018 19:00 to 18:10 78.20 79.40 80.41 79.36 79.88 79.25
5/22/2018 18:00 to 17:10 79.75 77.51 80.12 80.06 84.58 88.54
5/22/2018 17:00 to 16:10 82.05 82.15 81.51 82.03 82.61 81.55
5/22/2018 16:00 to 15:10 81.43 80.64 80.79 80.91 80.10 79.50
5/22/2018 15:00 to 14:10 80.37 80.95 80.23 80.50 79.65 80.39
5/22/2018 14:00 to 13:10 80.31 79.17 80.95 79.34 80.37 79.11
5/22/2018 13:00 to 12:10 78.18 78.99 78.88 78.22 78.38 79.13
5/22/2018 12:00 to 11:10 79.23 77.85 76.56 78.59 77.25 77.62
5/22/2018 11:00 to 10:10 77.83 78.14 78.94 76.91 76.85 75.13
5/22/2018 10:00 to 9:10 75.71 76.79 77.49 77.60 76.93 76.50
5/22/2018 09:00 to 8:10 77.27 77.25 76.54 77.51 78.38 76.17
5/22/2018 08:00 to 7:10 77.25 77.22 76.33 76.56 76.25 75.19
5/22/2018 07:00 to 6:10 77.47 77.45 78.18 76.87 75.77 78.28
5/22/2018 06:00 to 5:10 76.52 77.27 77.14 75.09 78.07 76.54
5/22/2018 05:00 to 4:10 77.60 75.98 77.29 74.74 77.47 77.31
5/22/2018 04:00 to 3:10 76.56 74.59 76.44 77.00 75.48 78.01
5/22/2018 03:00 to 2:10 77.62 77.74 78.07 78.84 79.67 77.31
5/22/2018 02:00 to 1:10 80.39 80.27 81.33 81.18 80.50 81.60
5/22/2018 01:00 to 0:10 79.38 78.57 80.91 79.54 81.28 80.60
5/22/2018 00:00 to 23:10 79.81 82.63 81.02 86.32 80.81 84.81
5/21/2018 23:00 to 22:10 81.86 80.41 81.33 81.35 83.92 85.41
5/21/2018 22:00 to 21:10 85.61 83.19 81.37 85.49 83.38 84.23
5/21/2018 21:00 to 20:10 90.86 92.78 92.74 93.49 93.09 90.44
5/21/2018 20:00 to 19:10 84.39 82.44 80.29 81.06 88.41 88.41
5/21/2018 19:00 to 18:10 88.04 87.27 87.54 85.55 86.77 87.38
5/21/2018 18:00 to 17:10 87.19 87.31 87.87 86.40 87.54 86.07
5/21/2018 17:00 to 16:10 85.01 84.45 84.47 85.39 85.90 85.24
5/21/2018 16:00 to 15:10 85.22 83.69 82.51 83.07 81.22 81.68
5/21/2018 15:00 to 14:10 78.38 77.20 78.90 75.71 84.62 81.80
5/21/2018 14:00 to 13:10 82.76 82.76 83.19 83.15 83.44 85.97
5/21/2018 13:00 to 12:10 86.80 87.85 89.38 87.77 86.92 84.58
5/21/2018 12:00 to 11:10 83.50 84.35 85.08 84.43 85.41 83.67
5/21/2018 11:00 to 10:10 82.90 83.98 84.70 84.66 85.24 85.63
5/21/2018 10:00 to 9:10 83.96 83.46 86.86 88.14 84.70 87.42
5/21/2018 09:00 to 8:10 86.24 84.64 82.40 83.54 86.26 82.15
5/21/2018 08:00 to 7:10 83.89 84.87 84.39 78.90 81.18 80.73
5/21/2018 07:00 to 6:10 79.57 80.83 81.60 82.03 81.37 82.24
5/21/2018 06:00 to 5:10 76.27 76.79 75.61 74.95 79.94 80.33
5/21/2018 05:00 to 4:10 83.96 85.84 81.18 77.89 81.60 79.59
5/21/2018 04:00 to 3:10 79.34 78.24 80.44 79.63 79.61 79.23
5/21/2018 03:00 to 2:10 80.56 79.98 82.05 82.03 81.84 81.24
5/21/2018 02:00 to 1:10 80.75 81.47 83.02 82.59 83.85 81.45
5/21/2018 01:00 to 0:10 83.60 84.79 82.84 86.26 82.84 81.53
5/21/2018 00:00 to 23:10 81.84 80.66 81.02 83.65 82.78 84.10
5/20/2018 23:00 to 22:10 89.24 85.32 83.27 83.40 83.73 82.94
5/20/2018 22:00 to 21:10 81.37 81.76 81.28 77.80 79.65 79.17
5/20/2018 21:00 to 20:10 78.88 79.11 78.26 77.35 76.44 78.63
5/20/2018 20:00 to 19:10 79.67 78.18 78.09 77.14 76.75 77.76
5/20/2018 19:00 to 18:10 77.58 77.22 77.22 78.96 78.59 78.09
5/20/2018 18:00 to 17:10 76.46 77.18 77.83 80.00 79.38 79.25
5/20/2018 17:00 to 16:10 79.40 79.65 77.51 76.58 78.14 77.99
5/20/2018 16:00 to 15:10 77.93 76.79 76.46 78.34 76.56 78.51
5/20/2018 15:00 to 14:10 77.10 78.22 76.98 76.50 79.01 77.25
5/20/2018 14:00 to 13:10 78.36 80.83 77.85 77.33 76.64 77.25
5/20/2018 13:00 to 12:10 78.74 77.35 76.48 75.13 76.17 74.39
5/20/2018 12:00 to 11:10 76.54 76.81 76.73 79.05 75.92 76.54
5/20/2018 11:00 to 10:10 77.06 77.43 74.53 74.59 77.04 77.68
5/20/2018 10:00 to 9:10 78.32 78.36 76.85 78.05 77.58 78.55
5/20/2018 09:00 to 8:10 76.46 77.29 79.17 79.67 79.92 80.85
5/20/2018 08:00 to 7:10 79.46 81.89 83.40 79.30 79.90 78.76
5/20/2018 07:00 to 6:10 80.00 80.70 82.34 80.41 78.70 80.12
5/20/2018 06:00 to 5:10 78.41 80.21 79.44 79.25 79.03 78.86
5/20/2018 05:00 to 4:10 77.27 76.77 78.18 77.89 76.67 75.57
5/20/2018 04:00 to 3:10 77.29 75.22 76.64 78.41 76.54 75.30
5/20/2018 03:00 to 2:10 74.47 74.30 74.88 71.94 74.63 75.32
5/20/2018 02:00 to 1:10 76.33 76.48 76.71 79.23 74.68 77.08
5/20/2018 01:00 to 0:10 77.00 75.86 74.80 77.14 76.42 77.91